When you browse on this site, cookies collect data to enhance your experience and personalize the content and advertising you see.
Visit our Privacy Policy to learn more. By continuing to use the site, you agree to this use of cookies and data.
  • In Austria
  • List of Countries
  • For 7 days
  • Water Temperature
  • Satellite Maps
  • Weather Map
  • News
  • Weather Widgets
  • user-avatar
    Login

    Hourly Weather Rawson

    Today, 23 April, Tuesday

    Time Temperature Precipitation Wind Pressure Humidity
    00:00 +18°C° 0 mm 4 mps 759 mmHg 41%
    01:00 +16°C° 0 mm 6 mps 759 mmHg 43%
    02:00 +16°C° 0 mm 7 mps 760 mmHg 45%
    03:00 +15°C° 0 mm 8 mps 760 mmHg 53%
    04:00 +13°C° 0 mm 9 mps 761 mmHg 61%
    05:00 +12°C° 0 mm 11 mps 762 mmHg 69%
    06:00 +12°C° 0 mm 10 mps 763 mmHg 69%
    07:00 +12°C° 0 mm 10 mps 763 mmHg 69%
    08:00 +11°C° 0 mm 9 mps 764 mmHg 69%
    09:00 +12°C° 0 mm 9 mps 764 mmHg 62%
    10:00 +13°C° 0 mm 9 mps 765 mmHg 56%
    11:00 +15°C° 0 mm 8 mps 766 mmHg 50%
    12:00 +15°C° 0 mm 8 mps 766 mmHg 44%
    13:00 +15°C° 0 mm 7 mps 765 mmHg 39%
    14:00 +16°C° 0 mm 7 mps 765 mmHg 34%
    15:00 +15°C° 0 mm 6 mps 766 mmHg 35%
    16:00 +15°C° 0 mm 6 mps 766 mmHg 36%
    17:00 +14°C° 0 mm 5 mps 766 mmHg 37%
    18:00 +13°C° 0 mm 4 mps 766 mmHg 42%
    19:00 +13°C° 0 mm 4 mps 767 mmHg 47%
    20:00 +12°C° 0 mm 4 mps 767 mmHg 52%
    21:00 +11°C° 0 mm 3 mps 767 mmHg 55%
    22:00 +12°C° 0 mm 2 mps 767 mmHg 57%
    23:00 +12°C° 0 mm 2 mps 767 mmHg 59%

    Tomorrow, 24 April, Wednesday

    Time Temperature Precipitation Wind Pressure Humidity
    00:00 +10°C° 0 mm 2 mps 767 mmHg 61%
    01:00 +10°C° 0 mm 2 mps 767 mmHg 62%
    02:00 +10°C° 0 mm 2 mps 767 mmHg 63%
    03:00 +10°C° 0 mm 2 mps 767 mmHg 64%
    04:00 +10°C° 0 mm 2 mps 767 mmHg 64%
    05:00 +10°C° 0 mm 3 mps 767 mmHg 65%
    06:00 +10°C° 0 mm 3 mps 767 mmHg 65%
    07:00 +10°C° 0 mm 4 mps 767 mmHg 65%
    08:00 +10°C° 0 mm 5 mps 767 mmHg 65%
    09:00 +12°C° 0 mm 5 mps 767 mmHg 60%
    10:00 +14°C° 0 mm 6 mps 767 mmHg 54%
    11:00 +16°C° 0 mm 7 mps 767 mmHg 49%
    12:00 +17°C° 0 mm 7 mps 767 mmHg 48%
    13:00 +18°C° 0 mm 7 mps 766 mmHg 46%
    14:00 +20°C° 0 mm 7 mps 766 mmHg 45%
    15:00 +18°C° 0 mm 7 mps 765 mmHg 48%
    16:00 +18°C° 0 mm 7 mps 765 mmHg 51%
    17:00 +17°C° 0 mm 8 mps 765 mmHg 54%
    18:00 +17°C° 0 mm 7 mps 765 mmHg 59%
    19:00 +16°C° 0 mm 7 mps 765 mmHg 65%
    20:00 +15°C° 0 mm 7 mps 766 mmHg 71%
    21:00 +15°C° 0 mm 7 mps 766 mmHg 73%
    22:00 +15°C° 0 mm 7 mps 766 mmHg 76%
    23:00 +15°C° 0 mm 7 mps 766 mmHg 79%

    Day after tomorrow, 25 April, Thursday

    Time Temperature Precipitation Wind Pressure Humidity
    00:00 +15°C° 0 mm 7 mps 766 mmHg 80%
    01:00 +15°C° 0 mm 7 mps 766 mmHg 81%
    02:00 +16°C° 0 mm 7 mps 766 mmHg 82%
    03:00 +16°C° 0 mm 7 mps 766 mmHg 79%
    04:00 +16°C° 0 mm 7 mps 765 mmHg 76%
    05:00 +16°C° 0 mm 7 mps 765 mmHg 73%
    06:00 +16°C° 0 mm 7 mps 765 mmHg 68%
    07:00 +16°C° 0 mm 7 mps 765 mmHg 64%
    08:00 +16°C° 0 mm 7 mps 765 mmHg 59%
    09:00 +18°C° 0 mm 7 mps 765 mmHg 53%
    10:00 +21°C° 0 mm 8 mps 765 mmHg 46%
    11:00 +22°C° 0 mm 8 mps 765 mmHg 39%
    12:00 +23°C° 0 mm 8 mps 765 mmHg 37%
    13:00 +24°C° 0 mm 9 mps 764 mmHg 35%
    14:00 +26°C° 0 mm 9 mps 764 mmHg 32%
    15:00 +24°C° 0 mm 9 mps 764 mmHg 33%
    16:00 +24°C° 0 mm 9 mps 764 mmHg 34%
    17:00 +23°C° 0 mm 9 mps 763 mmHg 34%
    18:00 +22°C° 0 mm 9 mps 764 mmHg 37%
    19:00 +21°C° 0 mm 10 mps 764 mmHg 40%
    20:00 +19°C° 0 mm 10 mps 764 mmHg 42%
    21:00 +19°C° 0 mm 10 mps 764 mmHg 45%
    22:00 +19°C° 0 mm 10 mps 764 mmHg 48%
    23:00 +19°C° 0 mm 9 mps 764 mmHg 51%

    26 April, Friday

    Time Temperature Precipitation Wind Pressure Humidity
    00:00 +18°C° 0 mm 9 mps 764 mmHg 51%
    01:00 +18°C° 0 mm 9 mps 764 mmHg 51%
    02:00 +18°C° 0 mm 9 mps 764 mmHg 51%
    03:00 +17°C° 0 mm 9 mps 763 mmHg 52%
    04:00 +17°C° 0 mm 9 mps 763 mmHg 53%
    05:00 +17°C° 0 mm 8 mps 763 mmHg 55%
    06:00 +17°C° 0 mm 9 mps 762 mmHg 55%
    07:00 +17°C° 0 mm 9 mps 762 mmHg 55%
    08:00 +17°C° 0 mm 10 mps 762 mmHg 56%
    09:00 +18°C° 0 mm 10 mps 762 mmHg 53%
    10:00 +21°C° 0 mm 11 mps 761 mmHg 50%
    11:00 +23°C° 0 mm 11 mps 761 mmHg 48%
    12:00 +23°C° 0 mm 11 mps 760 mmHg 46%
    13:00 +24°C° 0 mm 11 mps 759 mmHg 45%
    14:00 +26°C° 0 mm 11 mps 758 mmHg 43%
    15:00 +26°C° 0 mm 11 mps 758 mmHg 43%
    16:00 +26°C° 0 mm 10 mps 757 mmHg 43%
    17:00 +24°C° 0 mm 10 mps 757 mmHg 43%
    18:00 +24°C° 0 mm 10 mps 757 mmHg 46%
    19:00 +23°C° 0 mm 11 mps 757 mmHg 49%
    20:00 +22°C° 0 mm 11 mps 757 mmHg 53%
    21:00 +22°C° 0 mm 11 mps 756 mmHg 53%
    22:00 +22°C° 0 mm 11 mps 756 mmHg 54%
    23:00 +22°C° 0 mm 10 mps 755 mmHg 55%

    27 April, Saturday

    Time Temperature Precipitation Wind Pressure Humidity
    00:00 +22°C° 0 mm 10 mps 755 mmHg 52%
    01:00 +22°C° 0 mm 9 mps 755 mmHg 50%
    02:00 +22°C° 0 mm 9 mps 755 mmHg 47%
    03:00 +22°C° 0 mm 9 mps 754 mmHg 46%
    04:00 +21°C° 0 mm 9 mps 754 mmHg 44%
    05:00 +19°C° 0 mm 9 mps 754 mmHg 43%
    06:00 +20°C° 0.1 mm 8 mps 755 mmHg 45%
    07:00 +20°C° 0.1 mm 7 mps 755 mmHg 46%
    08:00 +19°C° 0.1 mm 5 mps 755 mmHg 48%
    09:00 +20°C° 0 mm 7 mps 755 mmHg 42%
    10:00 +21°C° 0 mm 8 mps 756 mmHg 37%
    11:00 +22°C° 0 mm 10 mps 756 mmHg 31%
    12:00 +22°C° 0 mm 10 mps 756 mmHg 29%
    13:00 +22°C° 0 mm 11 mps 756 mmHg 28%
    14:00 +22°C° 0 mm 11 mps 756 mmHg 26%
    15:00 +22°C° 0 mm 11 mps 756 mmHg 25%
    16:00 +21°C° 0 mm 11 mps 756 mmHg 25%
    17:00 +21°C° 0 mm 10 mps 757 mmHg 25%
    18:00 +19°C° 0 mm 9 mps 757 mmHg 27%
    19:00 +18°C° 0 mm 8 mps 758 mmHg 29%
    20:00 +17°C° 0 mm 6 mps 759 mmHg 32%
    21:00 +16°C° 0 mm 6 mps 759 mmHg 33%
    22:00 +15°C° 0 mm 5 mps 760 mmHg 34%
    23:00 +14°C° 0 mm 4 mps 761 mmHg 36%

    28 April, Sunday

    Time Temperature Precipitation Wind Pressure Humidity
    00:00 +14°C° 0 mm 4 mps 761 mmHg 37%
    01:00 +13°C° 0 mm 4 mps 761 mmHg 39%
    02:00 +13°C° 0 mm 4 mps 761 mmHg 41%
    03:00 +12°C° 0 mm 4 mps 761 mmHg 44%
    04:00 +12°C° 0 mm 4 mps 761 mmHg 47%
    05:00 +11°C° 0 mm 3 mps 761 mmHg 50%
    06:00 +11°C° 0 mm 3 mps 761 mmHg 51%
    07:00 +12°C° 0 mm 2 mps 761 mmHg 53%
    08:00 +12°C° 0 mm 1 mps 761 mmHg 54%
    09:00 +13°C° 0 mm 3 mps 761 mmHg 48%
    10:00 +14°C° 0 mm 4 mps 761 mmHg 41%
    11:00 +15°C° 0 mm 5 mps 760 mmHg 34%
    12:00 +16°C° 0 mm 6 mps 759 mmHg 32%
    13:00 +17°C° 0 mm 6 mps 759 mmHg 30%
    14:00 +19°C° 0 mm 6 mps 758 mmHg 28%
    15:00 +19°C° 0 mm 5 mps 757 mmHg 28%
    16:00 +19°C° 0 mm 5 mps 757 mmHg 28%
    17:00 +19°C° 0 mm 4 mps 757 mmHg 29%
    18:00 +19°C° 0 mm 4 mps 757 mmHg 29%
    19:00 +18°C° 0 mm 4 mps 757 mmHg 30%
    20:00 +17°C° 0 mm 4 mps 757 mmHg 31%
    21:00 +16°C° 0 mm 5 mps 758 mmHg 33%
    22:00 +15°C° 0 mm 6 mps 758 mmHg 35%
    23:00 +15°C° 0 mm 7 mps 758 mmHg 36%
    Show more